User: anonymous   Login
Location: Mascot Post Office (historical)
(40.2645°N, 99.5462°W)
Time: 23:11:11
(UTC+00:00)
Language:

In-Cosmos 22 Rocket - Orbit

View from above orbital plane
View from above orbital plane
View from above satellite
View from above satellite

Ground track
Ground track

The orbit data is extracted from the following two-line orbital elements,

1 12646U 81075B   20273.49921271 +.00000074 +00000-0 +30430-4 0  9994
2 12646 081.2282 169.6757 0067839 161.6669 010.8101 14.15900067021370
Epoch (UTC): 29 September 2020 11:58:51
Eccentricity: 0.0067839
inclination: 81.2282°
perigee height: 790 km
apogee height: 888 km
right ascension of ascending node: 169.6757°
argument of perigee: 161.6669°
revolutions per day: 14.15900067
mean anomaly at epoch: 10.8101°
orbit number at epoch: 2137

The dashed part of the orbit path shows where the satellite is in the earth's shadow,  

DLR